Voltar ao catálogo

STARLINK-1557

AtivoComunicaçõesVLEO
NORAD 46034·PAYLOAD·🇺🇸 United States

Lançado Aug 7, 2020 de Cape Canaveral Space Force Station

Loading…

Próximas Passagens (próximas 24 horas)

TLE

AtualizadoSource: CelesTrak SupGP

Época: Sep 15, 2026, 00:58 UTC

1 46034C 20055H   26258.04076389  .00046202  00000+0  14854-2 0  2584
2 46034  53.1586 326.2863 0001052 100.3199  58.7261 15.31687459    17

Acompanhe STARLINK-1557 em tempo real com AllMySat

Download on the App Store